Tulsa International Airport Airport (TUL)

 

Airport Diagram
Current Weather/Forecast (VFR Conditions)
METAR KTUL 132053Z 18007KT 10SM FEW160 FEW200 14/05 A2980 RMK AO2 SLP089 T01390050 56027
TAF KTUL 131724Z 1318/1418 19008KT P6SM SKC FM141200 35008KT P6SM BKN250

All Charts
General
Chart Name Download
AIRPORT DIAGRAM
TAKEOFF MINIMUMS
ALTERNATE MINIMUMS
RADAR MINIMUMS

Departures
Chart Name Download
TULSA SEVEN

Arrivals
Chart Name Download
VINTA TWO

Approaches
Chart Name Download
ILS OR LOC RWY 18L
ILS OR LOC RWY 18R
ILS OR LOC RWY 36R
ILS RWY 36R (SA CAT I)
ILS RWY 36R (CAT II)
RNAV (GPS) RWY 08
RNAV (GPS) RWY 18L
RNAV (GPS) RWY 18R
RNAV (GPS) RWY 26
RNAV (GPS) RWY 36L
RNAV (GPS) RWY 36R
VOR/DME RWY 08
HI-VOR/DME OR TACAN RWY 26
VOR OR TACAN RWY 26


Inbound Traffic (Arrivals)

No inbound traffic.


Outbound Traffic (Departures)

No outbound traffic.